Flag for United Kingdom Weather past 2 weeks in York, England, United Kingdom

Now
54 °F

Partly cloudy.


Feels Like: 50 °F
Forecast: 40 / 55 °F
Wind: 10 mph from South

Location: Linton-On-Ouse

Current Time: Oct 21, 2014 at 1:48:26 AM

Latest Report: Oct 21, 2014 at 12:50 AM


Visibility: N/A

Pressure: 29.59 "Hg

Humidity: 88%

Dew point: 50 °F

Location of YorkLocation

Historic Weather in York — Graph

°F

York temperature yesterday

Maximum temperature yesterday: 57 °F (at 1:50 PM)
Minimum temperature yesterday: 52 °F (at 1:50 AM)
Average temperature yesterday: 53 °F

Past Weeks' High & Low Weather Summary

 TemperatureHumidityPressure
High66 °F (Oct 17, 1:50 PM)100% (Oct 7, 1:50 AM)29.95 "Hg (Oct 7, 1:50 AM)
Low36 °F (Oct 12, 3:50 AM)55% (Oct 10, 12:50 PM)29.18 "Hg (Oct 8, 5:18 PM)
Average52 °F86%29.63 "Hg
* Reported Oct 5 11:50 PM — Oct 20 11:50 PM, York, Weather by CustomWeather, © 2014

Note: Actual official high and low records may vary slightly from our data, if they occured in-between our weather recording intervals... More about our weather records

Advertising

York weather history for previous 24 hours

 ConditionsComfort  
Time TempWeatherWind HumidityBarometerVisibility
11:50 PM
Oct 20
52 °FPassing clouds.9 mph88%29.62 "HgN/A
10:50 PM52 °FPassing clouds.8 mph88%29.68 "HgN/A
9:50 PM54 °FPassing clouds.10 mph82%29.71 "HgN/A
8:50 PM52 °FPassing clouds.10 mph88%29.74 "HgN/A
7:50 PM54 °FPassing clouds.9 mph82%29.77 "HgN/A
6:50 PM54 °FSunny.7 mph82%29.77 "HgN/A
5:50 PM55 °FPartly sunny.8 mph77%29.80 "HgN/A
4:50 PM55 °FBroken clouds.12 mph82%29.80 "HgN/A
3:50 PM54 °FBroken clouds.13 mph94%29.83 "HgN/A
2:50 PM54 °FBroken clouds.15 mph94%29.83 "HgN/A
1:50 PM57 °FPartly sunny.13 mph77%29.83 "HgN/A
12:50 PM55 °FBroken clouds.13 mph77%29.86 "HgN/A
11:50 AM54 °FPartly sunny.8 mph88%29.86 "HgN/A
10:50 AM54 °FPartly sunny.7 mph94%29.86 "HgN/A
9:50 AM52 °FPartly sunny.6 mph100%29.86 "HgN/A
8:50 AM52 °FPartly sunny.8 mph94%29.86 "HgN/A
7:50 AM52 °FPartly cloudy.10 mph94%29.86 "HgN/A
6:50 AM54 °FPassing clouds.12 mph88%29.86 "HgN/A
5:50 AM52 °FPassing clouds.3 mph88%29.86 "HgN/A
3:50 AM52 °FPassing clouds.7 mph88%29.86 "HgN/A
2:50 AM54 °FPassing clouds.13 mph82%29.86 "HgN/A
1:50 AM52 °FClear.8 mph88%29.86 "HgN/A
Weather by CustomWeather, © 2014

See weather overviewHow to use our weather pages